SCP
0 -0 0 0 0 0 0 0 0 0 0 0 0 0 0 0 0 0 0 0 0 0 0 0 0 0 0 0 1 1 0 0
0 0 0 0 0 0 0 0 0 0 0 0 0 0 0 0 0 0 0 0 0 0 0 0 0 0 0 0 0 0 0 0
0 0 0 0 0 0 0 0 0 0 0 0 0 0 0 0 0 0 0 0 0 0 0 0 0 0 0 0 0 0 0 0
0 0 0 0 0 0 0 0 0 0 0 0 0 0 0 0 0 0 0 0 0 0 0 0 0 0 0 0 0 0 0 0
0 0 0 0 0 0 0 0 0 0 0 0 0 0 0 0 0 0 0 0 0 0 0 0 0 0 0 0 0 0 0 0
0 0 0 0 0 1 1 1 0 0 0 0 0 0 0 0 0 0 0 0 0 0 0 0 0 0 0 0 0 0 0 0
0 0 0 0 0 0 1 2 1 0 0 0 0 0 0 0 0 0 0 0 0 0 0 0 0 0 0 0 0 0 0 0
0 0 0 0 0 0 0 0 1 0 0 0 0 0 0 0 0 0 0 0 0 0 0 0 0 0 0 0 0 0 0 0
0 0 0 0 0 0 0 0 0 0 0 0 0 0 0 0 0 0 0 0 0 0 0 0 0 0 0 0 0 0 0 0
0 0 0 0 0 0 0 0 0 0 0 1 1 1 0 1 0 0 0 0 0 0 0 0 0 0 0 0 0 0 0 0
0 0 0 0 0 0 0 0 0 0 0 1 0 0 0 0 1 1 1 1 1 0 0 0 0 0 0 0 0 0 0 0
-0 0 0 0 0 0 0 0 0 0 0 1 1 1 1 1 1 1 1 1 1 1 0 0 0 0 0 0 0 0 0 0
0 0 0 0 0 0 0 0 0 0 0 0 0 1 0 1 0 1 1 0 1 1 1 0 0 0 0 0 0 0 0 0
0 0 0 0 0 0 0 0 0 0 0 0 0 0 0 0 0 0 0 0 0 0 1 1 0 0 0 0 0 0 0 0
0 0 0 0 0 0 0 0 0 0 0 0 0 0 1 0 0 0 0 0 0 0 0 0 0 0 0 0 0 0 0 0
0 0 0 0 0 0 0 0 0 0 0 0 0 0 0 0 0 0 0 0 0 0 1 1 0 0 0 0 0 0 0 0
0 0 0 0 0 0 0 0 0 0 0 0 0 0 0 0 0 0 0 0 0 0 1 1 1 1 0 0 0 0 0 0
0 0 0 0 0 0 0 0 0 0 0 0 0 0 0 0 0 0 0 0 0 1 1 1 1 1 0 0 0 0 0 0
0 0 -0 0 0 0 0 0 0 0 0 0 0 0 0 0 0 0 0 0 1 1 1 1 1 1 0 0 0 0 0 0
0 0 0 0 0 0 0 0 0 0 0 0 0 0 0 0 0 0 0 1 1 1 1 1 1 0 0 0 0 0 0 0
Wind_Speed_500mb
29 30 56 92 95 92 91 85 82 79 76 73 69 68 64 60 56 54 54 51 49 48 45 46 43 42 44 42 43 44 43 40
35 35 44 74 86 92 94 93 87 83 79 75 68 67 64 63 59 57 56 54 55 52 51 48 47 47 49 47 46 48 49 46
33 36 40 54 80 97 95 95 88 83 80 75 71 71 63 61 60 57 57 57 56 55 55 54 52 49 53 51 50 50 52 51
34 37 33 50 64 81 86 87 88 87 82 79 74 71 63 60 60 58 56 59 60 60 59 59 56 49 53 51 49 50 50 51
36 39 36 36 58 66 62 86 92 91 87 84 75 67 65 60 55 55 49 58 57 59 59 58 53 44 47 47 46 46 48 47
37 39 42 42 42 56 66 73 83 85 85 82 70 65 60 54 53 47 52 53 49 55 56 55 50 43 44 46 44 42 43 42
21 33 38 38 41 50 62 71 71 75 76 78 67 83 66 61 68 53 71 68 54 56 54 53 50 44 50 47 47 43 42 40
25 19 31 46 41 45 57 59 50 62 75 80 75 69 62 67 71 73 78 87 69 55 50 52 51 52 55 50 51 46 42 41
28 27 20 24 48 46 49 68 67 65 68 79 84 77 78 79 80 85 95 72 81 53 50 54 55 60 56 52 52 50 45 45
34 27 27 21 24 48 50 59 70 64 68 77 89 97 96 88 93 100 104 85 69 56 51 57 57 63 59 53 52 50 49 46
33 29 31 34 29 22 48 57 62 73 61 72 81 80 79 85 90 97 94 89 74 58 54 62 62 66 61 56 52 49 47 43
25 27 33 36 38 34 31 42 67 76 75 77 78 81 85 91 95 110 107 100 75 65 61 66 66 66 61 55 53 48 44 44
30 31 35 36 36 42 40 38 42 61 75 81 81 81 83 86 91 94 100 100 65 61 70 67 62 61 54 48 47 44 42 38
29 32 34 41 40 41 42 39 39 37 54 72 73 79 77 85 84 81 83 66 59 63 68 62 57 57 52 49 38 40 32 30
34 38 44 48 43 46 46 43 45 37 35 50 61 72 76 76 71 70 66 62 64 64 61 56 52 48 48 42 36 32 30 34
44 49 57 59 48 41 48 49 52 48 38 39 45 59 75 80 64 60 64 66 58 56 52 48 44 36 38 36 34 31 28 32
61 58 63 69 59 47 41 50 54 57 51 41 49 53 52 64 65 61 66 63 62 55 50 46 36 35 36 36 33 29 29 32
80 70 67 74 66 54 44 43 54 58 57 48 52 56 58 59 67 67 69 65 59 52 47 41 38 38 38 34 29 28 28 29
81 80 71 67 62 47 46 46 51 56 59 53 54 65 62 63 69 76 69 63 57 47 45 43 41 43 38 32 30 30 29 32
90 76 70 67 45 46 45 47 51 53 55 54 53 63 69 65 64 73 67 62 49 44 40 43 43 37 33 34 31 35 34 30
Wind_Direction_500mb
265 227 216 201 203 203 201 201 201 204 207 208 210 211 214 218 224 228 235 239 241 244 248 251 254 260 261 262 266 268 266 268
319 261 245 216 210 210 207 204 204 207 211 212 214 219 221 224 228 233 241 244 247 252 256 257 260 267 266 267 267 272 272 269
302 317 263 249 225 217 212 209 208 211 214 215 218 222 226 231 235 241 246 255 256 261 265 265 267 269 272 271 272 272 275 274
296 293 308 257 235 222 220 221 213 216 219 219 223 224 230 238 242 246 251 262 268 267 269 271 271 275 276 275 275 274 273 274
302 300 295 286 243 228 219 234 223 222 222 226 226 233 233 243 250 253 265 264 268 270 269 270 270 274 272 272 272 270 270 273
289 292 299 286 260 247 232 225 228 230 231 232 230 235 237 242 245 255 262 260 263 266 267 270 270 267 267 269 269 268 268 271
279 271 276 289 278 262 238 234 234 233 232 228 241 229 224 228 253 260 265 265 260 262 268 274 273 268 266 267 269 266 267 271
324 298 260 262 270 270 249 254 249 242 236 232 227 230 231 242 257 245 241 255 257 259 266 275 278 273 267 268 269 270 268 269
310 310 308 275 254 258 259 243 255 254 242 233 227 232 234 242 249 234 247 247 253 259 267 272 274 274 275 272 268 267 268 266
311 301 294 288 281 244 247 259 247 245 246 240 239 247 251 247 239 245 249 256 258 260 266 271 274 275 274 274 271 271 270 262
307 291 287 283 278 261 242 244 255 250 250 249 249 253 257 254 249 252 260 264 259 259 267 270 273 277 278 276 275 275 272 266
304 308 295 283 273 278 266 247 239 243 245 248 250 256 259 255 261 258 259 263 265 258 264 266 269 274 272 274 272 273 269 262
298 305 308 299 294 280 276 273 257 241 240 238 244 250 250 249 255 259 256 258 259 251 258 261 264 267 261 271 266 262 266 261
304 307 311 304 297 291 282 274 271 257 243 237 238 245 252 254 254 256 256 252 243 250 253 256 264 268 259 260 252 253 264 255
317 320 320 317 301 291 287 279 266 266 259 246 238 242 243 256 253 248 247 236 243 249 251 258 268 268 254 240 236 239 243 243
329 328 325 323 303 289 288 284 273 269 273 255 253 247 249 250 248 241 237 235 249 251 252 256 262 249 230 224 224 234 234 238
323 322 326 319 306 289 288 286 279 271 270 262 248 250 253 253 243 236 229 240 248 249 248 253 242 231 221 221 223 230 236 229
320 319 321 317 302 285 285 281 277 273 267 266 248 246 244 248 249 239 239 245 251 246 240 241 229 222 217 216 223 214 208 216
316 314 308 313 297 277 284 282 276 271 265 267 252 243 240 236 243 244 243 251 252 238 233 228 222 216 213 218 209 203 208 209
306 304 301 309 301 286 282 276 273 267 262 262 248 238 234 231 236 237 242 247 231 220 226 216 211 216 218 199 200 202 206 206
Wind_Speed_850mb
29 30 56 92 95 92 91 85 82 79 76 73 69 68 64 60 56 54 54 51 49 48 45 46 43 42 44 42 43 44 43 40
35 35 44 74 86 92 94 93 87 83 79 75 68 67 64 63 59 57 56 54 55 52 51 48 47 47 49 47 46 48 49 46
33 36 40 54 80 97 95 95 88 83 80 75 71 71 63 61 60 57 57 57 56 55 55 54 52 49 53 51 50 50 52 51
34 37 33 50 64 81 86 87 88 87 82 79 74 71 63 60 60 58 56 59 60 60 59 59 56 49 53 51 49 50 50 51
36 39 36 36 58 66 62 86 92 91 87 84 75 67 65 60 55 55 49 58 57 59 59 58 53 44 47 47 46 46 48 47
37 39 42 42 42 56 66 73 83 85 85 82 70 65 60 54 53 47 52 53 49 55 56 55 50 43 44 46 44 42 43 42
21 33 38 38 41 50 62 71 71 75 76 78 67 83 66 61 68 53 71 68 54 56 54 53 50 44 50 47 47 43 42 40
25 19 31 46 41 45 57 59 50 62 75 80 75 69 62 67 71 73 78 87 69 55 50 52 51 52 55 50 51 46 42 41
28 27 20 24 48 46 49 68 67 65 68 79 84 77 78 79 80 85 95 72 81 53 50 54 55 60 56 52 52 50 45 45
34 27 27 21 24 48 50 59 70 64 68 77 89 97 96 88 93 100 104 85 69 56 51 57 57 63 59 53 52 50 49 46
33 29 31 34 29 22 48 57 62 73 61 72 81 80 79 85 90 97 94 89 74 58 54 62 62 66 61 56 52 49 47 43
25 27 33 36 38 34 31 42 67 76 75 77 78 81 85 91 95 110 107 100 75 65 61 66 66 66 61 55 53 48 44 44
30 31 35 36 36 42 40 38 42 61 75 81 81 81 83 86 91 94 100 100 65 61 70 67 62 61 54 48 47 44 42 38
29 32 34 41 40 41 42 39 39 37 54 72 73 79 77 85 84 81 83 66 59 63 68 62 57 57 52 49 38 40 32 30
34 38 44 48 43 46 46 43 45 37 35 50 61 72 76 76 71 70 66 62 64 64 61 56 52 48 48 42 36 32 30 34
44 49 57 59 48 41 48 49 52 48 38 39 45 59 75 80 64 60 64 66 58 56 52 48 44 36 38 36 34 31 28 32
61 58 63 69 59 47 41 50 54 57 51 41 49 53 52 64 65 61 66 63 62 55 50 46 36 35 36 36 33 29 29 32
80 70 67 74 66 54 44 43 54 58 57 48 52 56 58 59 67 67 69 65 59 52 47 41 38 38 38 34 29 28 28 29
81 80 71 67 62 47 46 46 51 56 59 53 54 65 62 63 69 76 69 63 57 47 45 43 41 43 38 32 30 30 29 32
90 76 70 67 45 46 45 47 51 53 55 54 53 63 69 65 64 73 67 62 49 44 40 43 43 37 33 34 31 35 34 30
Wind_Direction_850mb
265 227 216 201 203 203 201 201 201 204 207 208 210 211 214 218 224 228 235 239 241 244 248 251 254 260 261 262 266 268 266 268
319 261 245 216 210 210 207 204 204 207 211 212 214 219 221 224 228 233 241 244 247 252 256 257 260 267 266 267 267 272 272 269
302 317 263 249 225 217 212 209 208 211 214 215 218 222 226 231 235 241 246 255 256 261 265 265 267 269 272 271 272 272 275 274
296 293 308 257 235 222 220 221 213 216 219 219 223 224 230 238 242 246 251 262 268 267 269 271 271 275 276 275 275 274 273 274
302 300 295 286 243 228 219 234 223 222 222 226 226 233 233 243 250 253 265 264 268 270 269 270 270 274 272 272 272 270 270 273
289 292 299 286 260 247 232 225 228 230 231 232 230 235 237 242 245 255 262 260 263 266 267 270 270 267 267 269 269 268 268 271
279 271 276 289 278 262 238 234 234 233 232 228 241 229 224 228 253 260 265 265 260 262 268 274 273 268 266 267 269 266 267 271
324 298 260 262 270 270 249 254 249 242 236 232 227 230 231 242 257 245 241 255 257 259 266 275 278 273 267 268 269 270 268 269
310 310 308 275 254 258 259 243 255 254 242 233 227 232 234 242 249 234 247 247 253 259 267 272 274 274 275 272 268 267 268 266
311 301 294 288 281 244 247 259 247 245 246 240 239 247 251 247 239 245 249 256 258 260 266 271 274 275 274 274 271 271 270 262
307 291 287 283 278 261 242 244 255 250 250 249 249 253 257 254 249 252 260 264 259 259 267 270 273 277 278 276 275 275 272 266
304 308 295 283 273 278 266 247 239 243 245 248 250 256 259 255 261 258 259 263 265 258 264 266 269 274 272 274 272 273 269 262
298 305 308 299 294 280 276 273 257 241 240 238 244 250 250 249 255 259 256 258 259 251 258 261 264 267 261 271 266 262 266 261
304 307 311 304 297 291 282 274 271 257 243 237 238 245 252 254 254 256 256 252 243 250 253 256 264 268 259 260 252 253 264 255
317 320 320 317 301 291 287 279 266 266 259 246 238 242 243 256 253 248 247 236 243 249 251 258 268 268 254 240 236 239 243 243
329 328 325 323 303 289 288 284 273 269 273 255 253 247 249 250 248 241 237 235 249 251 252 256 262 249 230 224 224 234 234 238
323 322 326 319 306 289 288 286 279 271 270 262 248 250 253 253 243 236 229 240 248 249 248 253 242 231 221 221 223 230 236 229
320 319 321 317 302 285 285 281 277 273 267 266 248 246 244 248 249 239 239 245 251 246 240 241 229 222 217 216 223 214 208 216
316 314 308 313 297 277 284 282 276 271 265 267 252 243 240 236 243 244 243 251 252 238 233 228 222 216 213 218 209 203 208 209
306 304 301 309 301 286 282 276 273 267 262 262 248 238 234 231 236 237 242 247 231 220 226 216 211 216 218 199 200 202 206 206